TITAN 3C TRANSTAGE DEB, 3494

Orbit data source: Space-Track

TITAN 3C TRANSTAGE DEB, 3494 is space debris in LEO originally from a launch on Fri, 15 Oct 1965 UTC launched from the Air Force Eastern Test Range (AFETR). Debris objects in space refer to the collection of defunct objects orbiting the Earth. Examples of debris include non-operational satellites, rocket bodies, and fragments generated from explosions, collisions, or faulty payload assembly.

Loading next visibility...
Identifier
3494, 1965-082QQ
Orbit
LEO
Country
Flag of USUS
Related business
Manufacturer
Unknown
Mission
Spacecraft
Bus & Motor
Unknown
Mass
Unknown
Launch date (UTC)
1965-10-15 (60 years ago)
Launch vehicle
Unknown
Launch site
Air Force Eastern Test Range (AFETR)
Object type
Payload
Rocket body
Debris
Shape & HBR
Unknown shape, 0.1 m
Radar Cross Section
Small (<0.1 m²)

Expand to show TLE details & history
Last TLE update: 1 day ago

TLE from 1 day ago
0 TITAN 3C TRANSTAGE DEB
1 03494U 65082QQ  25307.26925799  .00001009  00000-0  18946-3 0  9998
2 03494  31.8925  29.5312 0027224 229.9636 129.8615 14.61711915172363
Epoch: 2025-11-03T06:27Z
TLE epoch observation values (Epoch: 2025-11-03T06:27:43.890Z)
Latitude
Longitude
-110.17473°
Altitude
698.635 km
Speed
7.502 km/s
True Right ascension
01h 58m 07s
True Declination
0° 00' 00"
Sunlit
Object was in full shadow at epoch
Visualization orbit readout
Latitude
Unknown
Longitude
Unknown
Altitude
Unknown
Speed
Unknown
Apparent Right ascension
Unknown
Apparent Declination
Unknown
Sunlit
N/A
Visualization observer readout
Local Sidereal Time
06:41:46
Azimuth
Unknown
Elevation
Unknown
Doppler factor
Unknown
Orbital elements
Apogee altitude
710.527 km
Perigee altitude
672.035 km
Semi-major axis
7,069.418 km
Eccentricity
0.00272
Inclination
31.8925°
RAAN
29.5312°
Arg. of periapsis
229.9636°
True anomaly
130.10044°
Mean anomaly
129.8615°
Eccentric anomaly
129.98102°
Mean motion
3.65147 °/min
Orbital period
98.59 mins
BSTAR
0.00018946

Documentation

Showing up to 5 results
|